Regional Weather Roundup
Issued by NWS

Home | Current Version | Previous Version | Graphics & Text | Print | Product List | Glossary Off
Versions: 1 2 3 4 5 6 7 8 9 10 11 12 13 14 15 16 17 18 19 20 21 22 23 24 25 26 27 28 29 30 31 32 33 34 35 36 37 38 39 40 41 42 43 44 45 46 47 48 49 50

000
ASUS43 KMPX 262201
RWRMN
WEATHER ROUNDUP FOR MINNESOTA
NATIONAL WEATHER SERVICE TWIN CITIES/CHANHASSEN MN
400 PM CST FRI DEC 26 2014


NOTE: "FAIR" INDICATES FEW OR NO CLOUDS BELOW 12,000 FEET WITH NO
SIGNIFICANT WEATHER AND/OR OBSTRUCTIONS TO VISIBILITY. N/A MEANS
CURRENT SKY AND/OR WEATHER CONDITIONS ARE NOT AVAILABLE.

MNZ060>063-068>070-262300-
   Twin Cities Metro

CITY           SKY/WX    TMP DP  RH WIND       PRES   REMARKS
TWIN CITIES    CLOUDY    32  25  75 N10       30.04R WCI  24
ST PAUL        CLOUDY    32  26  78 N10       30.05R WCI  24
CRYSTAL        CLOUDY    32  25  75 N10       30.04R WCI  24
BLAINE         CLOUDY    34  30  86 N9        30.04R WCI  26
LAKEVILLE      CLOUDY    30  27  86 N13       30.02S WCI  20
EDEN PRAIRIE   CLOUDY    32  25  75 N10       30.02R WCI  24
SOUTH ST PAUL  CLOUDY    32  27  81 N9        30.03S WCI  24
LAKE ELMO      CLOUDY    32  28  86 N7        30.04R WCI  26
$$
MNZ001>005-007-008-013>017-022>024-027-028-262300-
   Northwest Minnesota

CITY           SKY/WX    TMP DP  RH WIND       PRES   REMARKS
BEMIDJI        CLOUDY    22  15  72 N6        30.11R WCI  15
HALLOCK        FLURRIES  12   9  85 NW12      30.21R WCI  -2
ROSEAU         CLOUDY    19  12  73 NW10      30.15R WCI   8
WARROAD        LGT SNOW  18  14  86 NW9       30.15R WCI   6
THIEF RVR FALL CLOUDY    18  16  93 NW8       30.17R WCI   7
CROOKSTON      FLURRIES  18  14  86 NW12      30.20R WCI   5
FOSSTON        CLOUDY    19  16  86 NW12      30.15R WCI   7
DETROIT LAKES  MOCLDY    25  21  86 N12       30.13R WCI  14
MOORHEAD       DRIZZLE   25  19  80 NW9       30.18R WCI  15
PARK RAPIDS    CLOUDY    25  17  72 N12       30.09S WCI  14
MAHNOMEN       CLOUDY    22  18  85 NW13      30.13R WCI  10
$$
MNZ006-009>011-018-025>026-262300-
   North Central Minnesota

CITY           SKY/WX    TMP DP  RH WIND       PRES   REMARKS
BAUDETTE       CLOUDY    20  13  74 NW6       30.13R WCI  12
FLAG ISLAND    CLOUDY    16  10  79 N9        30.15R WCI   4
INTL FALLS     CLOUDY    22  16  78 N7        30.11R WCI  13
WASKISH        LGT SNOW  23  18  80 CALM      30.12S
BIG FORK       CLOUDY    23  18  80 N3        30.10R
LONGVILLE      CLOUDY    23  18  80 NW8       30.10S WCI  14
GRAND RAPIDS   CLOUDY    25  18  74 N13       30.07S WCI  13
CRANE LAKE     LGT SNOW  25  21  86 NW3       30.10R
ORR            LGT SNOW  23  18  80 NW5       30.06R WCI  17
COOK           FLURRIES  25  19  80 W7        30.08R WCI  17
WALKER         CLOUDY    22  15  71 N6        30.10R WCI  15
$$
MNZ012-019>021-037-262300-
   Northeast Minnesota

CITY           SKY/WX    TMP DP  RH WIND       PRES   REMARKS
DULUTH         CLOUDY    29  20  69 N7        30.03S WCI  22
ELY            CLOUDY    27  21  80 NW5       30.05R WCI  21
HIBBING        CLOUDY    27  17  66 N9        30.07R WCI  18
EVELETH        MOCLDY    27  19  74 N5        30.07R WCI  21
DULUTH HARBOR  CLOUDY    34  25  69 N8        30.07F WCI  27
TWO HARBORS    CLOUDY    34  25  69 N3        30.03S
SILVER BAY     CLOUDY    30  23  74 CALM      30.03S
GRAND MARAIS     N/A     33  23  66 NW3       30.07R
G MARAIS ARPRT CLOUDY    25  19  80 NW3       30.02R
$$
MNZ029>031-032-039>041-046>048-054>057-064-262300-
   West Central Minnesota

CITY           SKY/WX    TMP DP  RH WIND       PRES   REMARKS
FERGUS FALLS   CLOUDY    23  18  80 N9        30.15S WCI  13
WHEATON        CLOUDY    21  18  86 NW17G23   30.16S WCI   7
MORRIS         MOCLDY    27  19  74 N13       30.09S WCI  16
ALEXANDRIA     CLOUDY    25  18  74 N14       30.08S WCI  13
ELBOW LAKE     CLOUDY    24  19  81 N14       30.11R WCI  11
WADENA         CLOUDY    23  18  80 N9        30.09R WCI  13
GLENWOOD       CLOUDY    25  21  86 N13       30.07S WCI  13
APPLETON       CLOUDY    27  21  80 N14       30.10R WCI  15
BENSON         CLOUDY    27  21  80 NE8       30.09R WCI  18
ORTONVILLE     CLOUDY    25  19  80 N21       30.11S WCI  10
MADISON        CLOUDY    28  25  86 N12       30.11R WCI  18
WILLMAR        CLOUDY    28  21  74 N12       30.08R WCI  18
$$
MNZ033>034-036-042>043-049>051-058-059-262300-
   Central Minnesota

CITY           SKY/WX    TMP DP  RH WIND       PRES   REMARKS
ST CLOUD       CLOUDY    32  22  66 N12       30.06R WCI  23
SAUK CENTRE    CLOUDY    26  20  77 N10       30.08R WCI  16
PAYNESVILLE    CLOUDY    25  21  83 NW7       30.07R WCI  17
AITKIN         CLOUDY    30  19  64 N6        30.06S WCI  24
PINE RIVER     CLOUDY    25  18  74 NW7       30.12R WCI  17
BRAINERD       CLOUDY    26  18  71 N13       30.09R WCI  15
STAPLES        CLOUDY    25  18  74 N10       30.09R WCI  15
LONG PRAIRIE   CLOUDY    27  19  74 NW8       30.08R WCI  18
LITTLE FALLS   CLOUDY    28  19  69 N5        30.08R WCI  23
LITCHFIELD     CLOUDY    28  27  93 N7        30.07R WCI  21
BUFFALO        CLOUDY    30  25  79 N7        30.06R WCI  24
MAPLE LAKE     CLOUDY    31  26  82 N7        30.07R WCI  24
$$
MNZ037-044-045-052-053-262300-
   East Central Minnesota

CITY           SKY/WX    TMP DP  RH WIND       PRES   REMARKS
PRINCETON      CLOUDY    30  25  80 N8        30.06R WCI  23
MORA           CLOUDY    32  23  69 N6        30.07R WCI  26
CAMBRIDGE      CLOUDY    32  23  69 N5        30.04R WCI  27
RUSH CITY      CLOUDY    30  25  81 N7        30.06R WCI  23
MOOSE LAKE     CLOUDY    30  23  74 N8        30.04S WCI  23
HINCKLEY       CLOUDY    32  27  80 CALM      30.06R
CLOQUET        CLOUDY    28  21  74 NW8       30.04S WCI  20
MCGREGOR       CLOUDY    28  21  74 N9        30.07R WCI  20
$$
MNZ071>073-080-081-089-090-097-098-262300-
   Southwest Minnesota

CITY           SKY/WX    TMP DP  RH WIND       PRES   REMARKS
MONTEVIDEO     CLOUDY    27  23  86 NE14      30.10R WCI  15
GRANITE FALLS  CLOUDY    27  23  84 N6        30.10R WCI  21
CANBY          CLOUDY    25  22  87 N14       30.12R WCI  13
MARSHALL       CLOUDY    25  19  80 N16       30.08R WCI  12
REDWOOD FALLS  CLOUDY    29  22  75 N10       30.07R WCI  20
OLIVIA         CLOUDY    28  25  86 N12       30.06R WCI  18
PIPESTONE      LGT SNOW  25  21  86 N13G18    30.03S WCI  13
WINDOM         CLOUDY    28  27  93 N16       30.03R WCI  17
WORTHINGTON    CLOUDY    27 -20  12 N20       30.01F WCI  13
JACKSON        CLOUDY    30  28  93 VRB13G23  30.00S WCI  20
TRACY          CLOUDY    28  26  92 N13       30.06R WCI  17
SLAYTON        CLOUDY    25  24  96 N15       30.04R WCI  12
$$
MNZ065>067-074>077-082>085-091>093-262300-
   South Central Minnesota

CITY           SKY/WX    TMP DP  RH WIND       PRES   REMARKS
MANKATO        CLOUDY    30  25  80 N14       30.02R WCI  20
NEW ULM        CLOUDY    30  27  86 N12       30.04R WCI  21
ST JAMES       CLOUDY    32  28  86 N14       30.04R WCI  22
FAIRMONT       CLOUDY    30  25  80 N15       30.01R WCI  19
GLENCOE        CLOUDY    31  27  86 N12G18    30.03S WCI  22
FARIBAULT      CLOUDY    32  28  86 N10       30.01S WCI  24
OWATONNA       CLOUDY    32  28  86 N12       29.99S WCI  23
ALBERT LEA     CLOUDY    32  30  93 N14       29.97R FOG     WCI  22
$$
MNZ078>079-086>088-094>096-262300-
   Southeast Minnesota

CITY           SKY/WX    TMP DP  RH WIND       PRES   REMARKS
ROCHESTER      CLOUDY    32  29  88 N14       29.97R WCI  22
RED WING       CLOUDY    34  28  80 N6        30.01S WCI  29
STANTON        CLOUDY    33  29  86 N9        30.00S WCI  25
DODGE CENTER   CLOUDY    32  30  93 N14       29.97S WCI  22
WINONA         CLOUDY    36  32  87 N5        30.00R
AUSTIN         CLOUDY    32  30  93 N8        29.98R FOG     WCI  25
PRESTON        CLOUDY    32  30  93 N10       29.94F FOG     WCI  24
$$
ABBREVIATIONS USED IN REMARKS
   TC - TEMPERATURES IN CELSIUS
  WCI - WIND CHILL INDEX
   HX - HEAT INDEX
  VSB - VISIBILITY
$$


USA.gov is the U.S. government's official web portal to all federal, state and local government web resources and services.